Regional Weather Roundup
Issued by NWS Newport/Morehead, NC

Current Version | Previous Version | Text Only | Print | Product List | Glossary On
Versions: 1 2 3 4 5 6 7 8 9 10 11 12 13 14 15 16 17 18 19 20 21 22 23 24 25 26 27 28 29 30 31 32 33 34 35 36 37 38 39 40 41 42 43 44 45 46 47 48 49 50
000
ASUS42 KMHX 231710
RWRMHX
WEATHER ROUNDUP FOR EASTERN NORTH CAROLINA
NATIONAL WEATHER SERVICE NEWPORT/MOREHEAD CITY NC
100 PM EDT WED APR 23 2014

NOTE: "FAIR" INDICATES FEW OR NO CLOUDS BELOW 12,000 FEET
WITH NO SIGNIFICANT WEATHER AND/OR OBSTRUCTIONS TO VISIBILITY

NCZ015>017-031-032-045>047-102-103-231800-
NORTH COAST

CITY           SKY/WX    TMP DP  RH WIND       PRES   REMARKS
EDENTON        SUNNY     66  42  40 NW14      29.79F
ELIZABETH CITY   N/A    N/A N/A N/A MISG      29.78
KITTY HAWK     SUNNY     58  37  44 N8        29.77F
MANTEO         SUNNY     61  39  45 NE10      29.79F

$$

NCZ045>047-081-094-103-104-231800-
CENTRAL COAST

CITY           SKY/WX    TMP DP  RH WIND       PRES   REMARKS
FRISCO         SUNNY     62  42  47 NE9G18    29.79S
SWANQUARTER      N/A     70 N/A N/A N2G18     29.74F

$$

NCZ095-097-098-100-101-231800-
SOUTHERN COAST

CITY           SKY/WX    TMP DP  RH WIND       PRES   REMARKS
BEAUFORT       MOSUNNY   69  56  62 SE8       29.78F
CEDAR ISLAND     N/A     64 N/A N/A E6        29.82S
JACKSONVILLE   SUNNY     74  40  29 NW15G22   29.80S
NEWPORT          N/A     73  39  29 NW10G16     N/A
PINEY ISLAND   MOSUNNY   66  55  67 E9        29.78F
WILMINGTON     SUNNY     78  41  26 NW16G23   29.80F


$$

NCZ011>013-027>030-043-044-078>080-089-090>093-098-231800-
COASTAL PLAIN

CITY           SKY/WX    TMP DP  RH WIND       PRES   REMARKS
AHOSKIE        MOSUNNY   65  42  41 NW8       29.81S
CLINTON        SUNNY     71  37  28 NW7G22    29.84S
ELIZABETHTOWN  SUNNY     74  32  21 W12G20    29.83S
GOLDSBORO      SUNNY     71  33  24 NW16      29.80F
GREENVILLE     SUNNY     70  36  28 NW10      29.83F
HAVELOCK       SUNNY     74  39  28 NW15      29.79F
KENANSVILLE    SUNNY     71  33  25 NW13G18   29.83S
KINSTON        SUNNY     70  32  24 NW13G21   29.82F
NEW BERN       SUNNY     73  43  33 NW10G23   29.80S
RICHLANDS      SUNNY     73  68  83 W12G17    29.81F
ROANOKE RAPIDS NOT AVBL
ROCKY MOUNT    SUNNY     69  32  25 W15G26    29.83S
WASHINGTON     MOSUNNY   66  44  45 NW9G17    29.80F
WHITEVILLE     SUNNY     74  42  30 W6        29.82F

$$

AMZ130-135-150-152-154-156-158-170-250-252-270-ANZ085-086-088-633-658-670-231800-
MARINE OBSERVATIONS

STATION/POSITION TIME  TEMP    WIND        PRES    WAVE   SWELL
                       AIR SEA DIR/SP/G            HT/PER HT/PER
                 (UTC) (F)     (DEG/KT/KT) (MB)    (FT/S) (FT/S)
CHESAPEAKE LIGHT 1600   54     340/ 19/ 20 1008.8
BUOY 44014       1700   51 49  320/ 12/ 14 1008.0    4/ 5   3/ 8
DUCK             1700   53 50   20/ 12/ 14 1007.5
2E DUCK          1700      50                N/A     3/ 8
OREGON INLET     1700   56 57  360/ 10/ 14 1008.5
BUOY 44095       1700      51                N/A     4/ 8
HATTERAS CG      1700   58 59   30/ 11/ 17 1008.8
DIAMOND BUOY     1700   60 75   10/ 17/ 21 1008.1    7/ 6   2/ 9
CAPE LOOKOUT     1600   60      80/ 12/ 13 1008.9
BEAUFORT LAB     1700   62 61  130/ 10/ 12 1008.1
30 SE NEW RIVER  1700   66 69  290/  8/  8 1009.5    3/ 6   2/ 6
5 SE WRIGHTSVILL 1600   67 61  320/  6/  6 1009.7
FRYING PAN BUOY  1700   65 68  260/ 10/ 10 1009.8    3/ 9   2/ 9
BUOY 41001       NOT AVBL
BUOY 41002       NOT AVBL
BUOY 41004       1700   65 68  270/ 10/ 10 1011.1    3/ 8   2/ 8

$$



USA.gov is the U.S. government's official web portal to all federal, state and local government web resources and services.